DMSP 5D-2 F13 DEB, 40581

Orbit data source: Space-Track

DMSP 5D-2 F13 DEB, 40581 is space debris in SSO originally from a launch on Fri, 24 Mar 1995 UTC launched from the Air Force Western Test Range (AFWTR). Debris objects in space refer to the collection of defunct objects orbiting the Earth. Examples of debris include non-operational satellites, rocket bodies, and fragments generated from explosions, collisions, or faulty payload assembly.

Loading next visibility...
Identifier
40581, 1995-015EQ
Orbit
SSO
Country
Flag of USUS
Related business
Manufacturer
Unknown
Mission
Spacecraft
Bus & Motor
Unknown
Mass
Unknown
Launch date (UTC)
1995-03-24 (31 years ago)
Launch vehicle
Unknown
Launch site
Air Force Western Test Range (AFWTR)
Object type
Payload
Rocket body
Debris
Shape & HBR
Unknown shape, 0.1 m
Radar Cross Section
Small (<0.1 m²)

Expand to show TLE details & history
Last TLE update: 16 hours ago

TLE from 16 hours ago
0 DMSP 5D-2 F13 DEB
1 40581U 95015EQ  26118.58233408  .00004701  00000-0  16073-2 0  9990
2 40581  98.7019 160.5502 0021666  84.8026 275.5632 14.36644390573557
Epoch: 2026-04-28T13:58Z
TLE epoch observation values (Epoch: 2026-04-28T13:58:33.664Z)
Latitude
0.00002°
Longitude
94.35435°
Altitude
771.076 km
Speed
7.469 km/s
True Right ascension
10h 42m 12s
True Declination
0° 00' 00"
Sunlit
Object was in full shadow at epoch
Visualization orbit readout
Latitude
Unknown
Longitude
Unknown
Altitude
Unknown
Speed
Unknown
Apparent Right ascension
Unknown
Apparent Declination
Unknown
Sunlit
N/A
Visualization observer readout
Local Sidereal Time
13:06:34
Azimuth
Unknown
Elevation
Unknown
Doppler factor
Unknown
Orbital elements
Apogee altitude
782.223 km
Perigee altitude
751.263 km
Semi-major axis
7,144.88 km
Eccentricity
0.00217
Inclination
98.7019°
RAAN
160.5502°
Arg. of periapsis
84.8026°
True anomaly
275.31603°
Mean anomaly
275.5632°
Eccentric anomaly
275.43962°
Mean motion
3.59377 °/min
Orbital period
100.17 mins
BSTAR
0.0016073
Loading maneuver chart data...
Computing Atmospheric mass density...

Documentation

Showing up to 5 results
|